Meadville, PA

11:22 AM EST on December 13, 2019 (GMT -0500)
Port Meadville

Weather History for KGKJ - October, 2019

Change the Weather History Date:

Wednesday, October 2, 2019

  Actual Average Record
Temperature  
Mean Temperature 70 °F -  
Max Temperature 80 °F 66 °F 84 °F (1952)
Min Temperature 59 °F 44 °F 30 °F (1958)
Cooling Degree Days 5    
Growing Degree Days 20 (Base 50)    
Moisture  
Dew Point 64 °F    
Average Humidity 84    
Maximum Humidity 97    
Minimum Humidity 66    
Precipitation  
Precipitation 0.23 in - - ()
Sea Level Pressure  
Sea Level Pressure 29.93 in    
Wind  
Wind Speed 6 mph ()    
Max Wind Speed 10 mph    
Max Gust Speed -    
Visibility 10.0 miles    
Events Rain    
Averages and records for this station are not official NWS values.
T = Trace of Precipitation, MM = Missing Value Source: Averaged Metar Reports

Daily Weather History Graph

Daily Weather History Graph

Search for Another Location

Airport or City:

Astronomy

Oct. 02, 2019 Rise Set
Actual Time 7:18 AM EDT 7:01 PM EDT
Civil Twilight 6:50 AM EDT 7:28 PM EDT
Nautical Twilight 6:18 AM EDT 8:01 PM EDT
Astronomical Twilight 5:46 AM EDT 8:33 PM EDT
Moon 11:45 AM EDT (10/2) 9:50 PM EDT (10/2)
Length of Visible Light 12h 38m
Length of Day
11h 42m
Waxing Crescent, 20% of the Moon is Illuminated
Oct 2
Waxing Crescent
Oct 5
First Quarter
Oct 13
Full
Oct 21
Last Quarter
Oct 27
New

Hourly Weather History & Observations

Time (EDT) Temp. Heat Index Dew Point Humidity Pressure Visibility Wind Dir Wind Speed Gust Speed Precip Events Conditions
12:53 AM 69.1 °F - 64.9 °F 87% 29.92 in 10.0 mi South 3.5 mph - N/A   Clear
1:53 AM 70.0 °F - 64.9 °F 84% 29.91 in 10.0 mi South 3.5 mph - N/A   Clear
2:53 AM 69.1 °F - 64.9 °F 87% 29.90 in 10.0 mi South 5.8 mph - N/A   Clear
3:53 AM 70.0 °F - 64.0 °F 81% 29.90 in 10.0 mi SW 6.9 mph - N/A   Overcast
4:53 AM 72.0 °F - 64.0 °F 76% 29.89 in 10.0 mi SW 8.1 mph - N/A   Mostly Cloudy
5:53 AM 72.0 °F - 63.0 °F 73% 29.89 in 10.0 mi WSW 6.9 mph - N/A   Mostly Cloudy
6:53 AM 70.0 °F - 63.0 °F 78% 29.88 in 10.0 mi SW 5.8 mph - N/A   Scattered Clouds
7:53 AM 69.1 °F - 63.0 °F 81% 29.89 in 10.0 mi SW 4.6 mph - N/A   Partly Cloudy
8:53 AM 70.0 °F - 64.0 °F 81% 29.90 in 10.0 mi SSW 5.8 mph - N/A   Mostly Cloudy
9:53 AM 72.0 °F - 64.9 °F 78% 29.91 in 10.0 mi SSW 6.9 mph - N/A   Scattered Clouds
10:53 AM 73.9 °F - 64.9 °F 73% 29.90 in 10.0 mi WSW 8.1 mph - N/A   Clear
11:53 AM 75.9 °F - 64.9 °F 69% 29.91 in 10.0 mi SW 5.8 mph - N/A   Scattered Clouds
12:53 PM 78.1 °F - 66.0 °F 66% 29.90 in 10.0 mi WSW 8.1 mph - N/A   Partly Cloudy
1:53 PM 80.1 °F 82.7 °F 68.0 °F 67% 29.89 in 10.0 mi Variable 6.9 mph - N/A   Mostly Cloudy
2:03 PM 77.0 °F - 66.9 °F 71% 29.92 in 10.0 mi WNW 9.2 mph - N/A   Mostly Cloudy
2:42 PM 75.0 °F - 66.9 °F 76% 29.92 in 10.0 mi WNW 10.4 mph - 0.00 in   Mostly Cloudy
2:53 PM 75.0 °F - 66.9 °F 76% 29.90 in 10.0 mi NNW 10.4 mph - 0.00 in   Mostly Cloudy
3:21 PM 73.9 °F - 66.0 °F 76% 29.92 in 10.0 mi NW 9.2 mph - N/A   Mostly Cloudy
3:53 PM 73.0 °F - 66.0 °F 79% 29.90 in 10.0 mi NNW 6.9 mph - N/A   Overcast
4:28 PM 73.0 °F - 66.0 °F 79% 29.93 in 10.0 mi North 8.1 mph - N/A   Overcast
4:37 PM 72.0 °F - 66.0 °F 81% 29.93 in 10.0 mi North 8.1 mph - N/A   Overcast
4:45 PM 71.1 °F - 66.0 °F 84% 29.93 in 10.0 mi North 9.2 mph - N/A   Overcast
4:53 PM 71.1 °F - 66.0 °F 84% 29.91 in 10.0 mi North 6.9 mph - N/A   Overcast
5:19 PM 70.0 °F - 64.9 °F 84% 29.93 in 10.0 mi North 5.8 mph - N/A   Overcast
5:43 PM 69.1 °F - 66.0 °F 90% 29.93 in 10.0 mi North 6.9 mph - 0.01 in Rain Light Rain
5:53 PM 69.1 °F - 66.0 °F 90% 29.91 in 10.0 mi North 5.8 mph - 0.01 in Rain Light Rain
6:05 PM 68.0 °F - 64.9 °F 90% 29.95 in 10.0 mi NW 5.8 mph - 0.00 in Rain Light Rain
6:36 PM 68.0 °F - 64.9 °F 90% 29.94 in 10.0 mi North 3.5 mph - 0.10 in Rain Rain
6:48 PM 66.2 °F - 64.4 °F 94% 29.94 in 10.0 mi NNE 4.6 mph - 0.10 in Rain Light Rain
6:53 PM 66.9 °F - 64.9 °F 93% 29.93 in 10.0 mi North 5.8 mph - 0.10 in   Overcast
7:02 PM 66.9 °F - 64.9 °F 93% 29.94 in 10.0 mi NNE 5.8 mph - N/A   Overcast
7:16 PM 66.9 °F - 64.9 °F 93% 29.95 in 10.0 mi NNE 5.8 mph - 0.01 in Rain Light Rain
7:53 PM 64.9 °F - 64.0 °F 97% 29.94 in 10.0 mi NE 10.4 mph - 0.02 in Rain Light Rain
8:09 PM 64.9 °F - 63.0 °F 93% 29.96 in 10.0 mi NNE 9.2 mph - 0.04 in Rain Rain
8:16 PM 64.0 °F - 63.0 °F 96% 29.96 in 10.0 mi NE 10.4 mph - 0.04 in Rain Light Rain
8:53 PM 63.0 °F - 61.0 °F 93% 29.95 in 10.0 mi NE 10.4 mph - 0.06 in Rain Light Rain
9:53 PM 61.0 °F - 59.0 °F 93% 29.97 in 10.0 mi NNE 9.2 mph - 0.04 in Rain Light Rain
10:15 PM 60.1 °F - 59.0 °F 96% 29.98 in 10.0 mi NNE 9.2 mph - 0.00 in   Overcast
10:43 PM 60.1 °F - 59.0 °F 96% 29.99 in 10.0 mi NNE 6.9 mph - 0.00 in   Overcast
10:53 PM 60.1 °F - 57.9 °F 93% 29.97 in 10.0 mi NNE 8.1 mph - 0.00 in   Overcast
11:53 PM 59.0 °F - 57.0 °F 93% 29.96 in 10.0 mi NNE 10.4 mph - N/A   Overcast